Flag for Australia Weather past 2 weeks in Eucla, Western Australia, Australia

Now
53 °F

Cool.


Feels Like: 50 °F
Forecast: 49 / 69 °F
Wind: 7 mph from Southwest

Location: Eucla Amo

Current Time: Jul 4, 2015 at 8:53:50 AM

Latest Report: Jul 4, 2015 at 6:45 AM


Visibility: N/A

Pressure: 30.16 "Hg

Humidity: 96%

Dew point: 52 °F

Location of EuclaLocation

Historic Weather in Eucla — Graph

°F

Eucla temperature yesterday

Maximum temperature yesterday: 73 °F (at 12:45 PM)
Minimum temperature yesterday: 44 °F (at 6:45 AM)
Average temperature yesterday: 56 °F

Past Weeks' High & Low Weather Summary

 TemperatureHumidityPressure
High79 °F (Jun 21, 3:45 PM)98% (Jun 30, 6:45 AM)30.55 "Hg (Jun 30, 6:45 AM)
Low37 °F (Jun 30, 6:45 AM)27% (Jul 3, 12:45 PM)29.74 "Hg (Jun 21, 3:45 PM)
Average55 °F72%30.28 "Hg
* Reported Jun 19 6:45 AM — Jul 4 6:45 AM, Eucla, Weather by CustomWeather, © 2015

Note: Actual official high and low records may vary slightly from our data, if they occured in-between our weather recording intervals... More about our weather records

Advertising

Eucla weather history for previous 24 hours

 ConditionsComfort  
Time TempWeatherWind HumidityBarometerVisibility
6:45 AM
Sat, Jul 4
53 °FCool.7 mph96%30.16 "HgN/A
5:45 AM53 °FCool.5 mph96%30.15 "HgN/A
3:45 AM53 °FCool.7 mph95%30.16 "HgN/A
2:45 AM52 °FCool.8 mph93%30.16 "HgN/A
12:45 AM54 °FCool.5 mph94%30.17 "HgN/A
11:45 PM
Fri, Jul 3
52 °FCool.3 mph92%30.18 "HgN/A
9:45 PM54 °FCool.3 mph89%30.19 "HgN/A
8:45 PM57 °FCool.6 mph85%30.19 "HgN/A
6:45 PM58 °FCool.6 mph78%30.17 "HgN/A
5:45 PM59 °FCool.7 mph78%30.17 "HgN/A
3:45 PM64 °FScattered clouds.9 mph62%30.16 "Hg25 mi
2:45 PM69 °FMild.9 mph44%30.15 "HgN/A
12:45 PM73 °FMild.10 mph27%30.19 "HgN/A
11:45 AM70 °FMild.10 mph32%30.22 "HgN/A
9:45 AM60 °FPassing clouds.14 mph46%30.26 "Hg25 mi
8:45 AM52 °FCool.12 mph61%30.26 "HgN/A
Weather by CustomWeather, © 2015

See weather overviewHow to use our weather pages